CW1502 Weather Reports


Display with metric or nautical units.
time (UTC)temp
F
wind
direction
speed
MPH
gust
MPH
rain 1hr
in
rain 24hr
in
rain mn
in
humidity
%
barometer
mb
20180926071531 61 258 8.0 0.0 0.00 0.00 0.00 87 1011.3
20180926070056 62 254 7.0 0.0 0.00 0.00 0.00 88 1011.4
20180926064525 62 355 7.0 0.0 0.00 0.00 0.00 88 1011.3
20180926061504 62 270 7.0 0.0 0.00 0.00 0.00 90 1010.7
20180926060103 63 252 7.0 0.0 0.00 0.00 0.00 90 1010.6
20180926053013 63 267 6.0 0.0 0.00 0.00 0.00 91 1010.2
20180926051606 63 246 5.0 0.0 0.00 0.00 0.00 91 1010.0
20180926044625 64 255 8.0 0.0 0.00 0.00 0.16 91 1010.0
20180926041509 65 242 2.0 0.0 0.00 0.00 0.16 91 1009.4
20180926040058 65 252 1.0 0.0 0.00 0.00 0.16 91 1009.7
20180926034518 65 256 0.0 0.0 0.00 0.00 0.16 90 1009.6
20180926033127 65 257 0.0 0.0 0.00 0.00 0.16 90 1009.4
20180926024537 66 215 1.0 0.0 0.00 0.00 0.16 90 1009.6
20180926023220 67 238 1.0 0.0 0.00 0.00 0.16 90 1009.6
20180926021557 67 238 1.0 0.0 0.00 0.00 0.16 90 1009.2
20180926013043 69 249 1.0 0.0 0.00 0.00 0.16 88 1008.5
20180926011502 69 237 0.0 0.0 0.00 0.00 0.16 87 1007.9
20180926010041 71 143 1.0 0.0 0.00 0.00 0.16 87 1006.5
20180926004555 72 240 0.0 0.0 0.00 0.00 0.12 86 1007.5
20180926001523 72 240 0.0 0.0 0.00 0.00 0.12 84 1008.1
20180926000049 72 240 0.0 0.0 0.00 0.00 0.12 83 1008.4
20180925234554 73 240 0.0 0.0 0.00 0.00 0.12 83 1008.6
20180925231518 74 240 0.0 0.0 0.00 0.00 0.12 82 1008.5
20180925230039 74 240 0.0 0.0 0.00 0.00 0.12 81 1008.5
20180925224551 74 240 0.0 0.0 0.00 0.00 0.12 80 1008.5
20180925221503 75 238 1.0 0.0 0.00 0.00 0.12 79 1008.1
20180925220206 75 269 0.0 0.0 0.00 0.00 0.12 79 1008.2
20180925214612 75 269 0.0 0.0 0.00 0.00 0.12 80 1008.3
20180925211520 76 261 1.0 0.0 0.00 0.00 0.12 80 1008.8
20180925210156 76 248 0.0 0.0 0.00 0.00 0.12 79 1008.7
20180925203059 76 245 2.0 0.0 0.00 0.00 0.12 78 1008.8
20180925201614 76 260 1.0 0.0 0.00 0.00 0.12 79 1009.3
20180925194515 76 238 0.0 0.0 0.00 0.00 0.12 78 1009.9
20180925191515 77 266 1.0 0.0 0.00 0.00 0.12 79 1010.5
20180925190105 77 246 1.0 0.0 0.00 0.00 0.12 80 1010.9
20180925184630 76 247 0.0 0.0 0.00 0.00 0.12 83 1011.0
20180925183004 75 250 0.0 0.0 0.00 0.00 0.12 90 1011.1
20180925181633 74 243 1.0 0.0 0.00 0.00 0.12 93 1011.2
20180925174602 72 180 0.0 0.0 0.00 0.00 0.12 96 1011.6
20180925171537 70 254 0.0 0.0 0.00 0.00 0.12 96 1012.1
20180925170050 70 254 1.0 0.0 0.00 0.00 0.12 96 1012.1
20180925161523 69 198 0.0 0.0 0.00 0.00 0.10 96 1012.3
20180925160104 69 198 0.0 0.0 0.00 0.00 0.04 96 1012.4
20180925153025 69 198 0.0 0.0 0.00 0.00 0.04 96 1012.4
20180925151602 68 123 0.0 0.0 0.00 0.00 0.04 96 1012.7
20180925144517 68 122 0.0 0.0 0.00 0.00 0.04 96 1013.1
20180925143054 68 121 0.0 0.0 0.00 0.00 0.04 96 1013.0
20180925141504 67 121 0.0 0.0 0.00 0.00 0.04 96 1012.9
20180925140115 67 121 0.0 0.0 0.00 0.00 0.04 96 1012.7
20180925134524 67 121 0.0 0.0 0.00 0.00 0.04 96 1012.6
20180925133117 66 121 0.0 0.0 0.00 0.00 0.04 96 1012.8
20180925130037 66 121 0.0 0.0 0.00 0.00 0.04 96 1013.1
20180925124620 66 121 0.0 0.0 0.00 0.00 0.04 95 1013.4
20180925121534 66 121 0.0 0.0 0.00 0.00 0.04 95 1013.2
20180925120122 66 121 0.0 0.0 0.00 0.00 0.04 95 1013.0
20180925111514 66 121 0.0 0.0 0.00 0.00 0.04 95 1013.5
20180925110224 66 121 0.0 0.0 0.00 0.00 0.04 95 1013.5
20180925103015 66 121 0.0 0.0 0.00 0.00 0.00 95 1013.3
20180925101519 66 121 0.0 0.0 0.00 0.00 0.00 95 1013.3
20180925100107 66 121 0.0 0.0 0.00 0.00 0.00 95 1013.3
20180925091532 65 121 0.0 0.0 0.00 0.00 0.00 94 1013.2
20180925090136 65 121 0.0 0.0 0.00 0.00 0.00 94 1013.0
20180925083036 66 121 0.0 0.0 0.00 0.00 0.00 94 1012.6
20180925080016 66 121 0.0 0.0 0.00 0.00 0.00 94 1013.0
20180925074605 66 121 0.0 0.0 0.00 0.00 0.00 94 1013.2